| time (UTC) | temp F | wind direction | speed MPH | gust MPH | rain 1hr in | rain 24hr in | rain mn in | humidity % | barometer mb |
| 20260506134555 | 70 | 47 | 1.0 | 4.0 | 0.00 | 0.00 | 0.00 | 70 | 1011.7 |
| 20260506133055 | 69 | 155 | 0.0 | 5.0 | 0.00 | 0.00 | 0.00 | 70 | 1011.7 |
| 20260506131552 | 69 | 88 | 1.0 | 6.0 | 0.00 | 0.00 | 0.00 | 71 | 1011.8 |
| 20260506130050 | 68 | 122 | 0.0 | 5.0 | 0.00 | 0.00 | 0.00 | 72 | 1011.9 |
| 20260506124547 | 68 | 115 | 0.0 | 4.0 | 0.00 | 0.00 | 0.00 | 72 | 1011.9 |
| 20260506123046 | 67 | 74 | 0.0 | 5.0 | 0.00 | 0.00 | 0.00 | 72 | 1012.3 |
| 20260506121546 | 67 | 54 | 0.0 | 3.0 | 0.00 | 0.00 | 0.00 | 73 | 1012.0 |
| 20260506120055 | 66 | 84 | 0.0 | 3.0 | 0.00 | 0.00 | 0.00 | 74 | 1012.0 |
| 20260506114555 | 65 | 130 | 0.0 | 4.0 | 0.00 | 0.00 | 0.00 | 76 | 1011.9 |
| 20260506113044 | 65 | 65 | 0.0 | 3.0 | 0.00 | 0.00 | 0.00 | 76 | 1011.9 |
| 20260506111544 | 64 | 69 | 0.0 | 4.0 | 0.00 | 0.00 | 0.00 | 76 | 1011.8 |
| 20260506110049 | 64 | 89 | 0.0 | 4.0 | 0.00 | 0.00 | 0.00 | 76 | 1011.8 |
| 20260506104543 | 64 | 72 | 0.0 | 3.0 | 0.00 | 0.00 | 0.00 | 76 | 1011.9 |
| 20260506103042 | 64 | 115 | 0.0 | 2.0 | 0.00 | 0.00 | 0.00 | 76 | 1011.9 |
| 20260506101543 | 64 | 69 | 0.0 | 3.0 | 0.00 | 0.00 | 0.00 | 75 | 1011.9 |
| 20260506100045 | 64 | 102 | 0.0 | 4.0 | 0.00 | 0.00 | 0.00 | 75 | 1011.8 |
| 20260506094554 | 64 | 111 | 0.0 | 2.0 | 0.00 | 0.00 | 0.00 | 75 | 1011.7 |
| 20260506093038 | 64 | 119 | 0.0 | 2.0 | 0.00 | 0.00 | 0.00 | 74 | 1011.8 |
| 20260506091538 | 64 | 58 | 0.0 | 3.0 | 0.00 | 0.00 | 0.00 | 74 | 1011.8 |
| 20260506090139 | 64 | 111 | 0.0 | 2.0 | 0.00 | 0.00 | 0.00 | 73 | 1011.8 |
| 20260506084535 | 64 | 128 | 0.0 | 4.0 | 0.00 | 0.00 | 0.00 | 72 | 1011.7 |
| 20260506083034 | 64 | 137 | 0.0 | 3.0 | 0.00 | 0.00 | 0.00 | 72 | 1011.9 |
| 20260506081535 | 64 | 126 | 0.0 | 3.0 | 0.00 | 0.00 | 0.00 | 71 | 1011.9 |
| 20260506073033 | 65 | 125 | 0.0 | 4.0 | 0.00 | 0.00 | 0.00 | 72 | 1012.0 |
| 20260506071533 | 65 | 113 | 0.0 | 3.0 | 0.00 | 0.00 | 0.00 | 72 | 1012.1 |
| 20260506061532 | 66 | 19 | 0.0 | 4.0 | 0.00 | 0.00 | 0.00 | 72 | 1012.4 |
| 20260506044524 | 67 | 80 | 0.0 | 3.0 | 0.00 | 0.00 | 0.00 | 70 | 1012.8 |
| 20260506043014 | 68 | 34 | 0.0 | 6.0 | 0.00 | 0.00 | 0.00 | 70 | 1012.8 |
| 20260506041509 | 68 | 49 | 0.0 | 2.0 | 0.00 | 0.00 | 0.00 | 71 | 1012.8 |
| 20260506040010 | 68 | 38 | 1.0 | 3.0 | 0.00 | 0.00 | 0.00 | 71 | 1012.7 |
| 20260506034506 | 68 | 109 | 0.0 | 3.0 | 0.00 | 0.00 | 0.00 | 72 | 1012.6 |
| 20260506033006 | 68 | 47 | 0.0 | 3.0 | 0.00 | 0.00 | 0.00 | 72 | 1012.7 |
| 20260506031512 | 68 | 29 | 0.0 | 4.0 | 0.00 | 0.00 | 0.00 | 72 | 1012.7 |
| 20260506030004 | 68 | 63 | 0.0 | 3.0 | 0.00 | 0.00 | 0.00 | 71 | 1012.7 |
| 20260506024513 | 69 | 69 | 0.0 | 3.0 | 0.00 | 0.00 | 0.00 | 71 | 1012.7 |
| 20260506023102 | 69 | 92 | 0.0 | 4.0 | 0.00 | 0.00 | 0.00 | 71 | 1012.7 |
| 20260506021503 | 69 | 130 | 0.0 | 3.0 | 0.00 | 0.00 | 0.00 | 71 | 1012.8 |
| 20260506020002 | 68 | 85 | 0.0 | 2.0 | 0.00 | 0.00 | 0.00 | 71 | 1012.9 |
| 20260506014501 | 69 | 71 | 0.0 | 2.0 | 0.00 | 0.00 | 0.00 | 71 | 1012.7 |
| 20260506013001 | 69 | 31 | 0.0 | 3.0 | 0.00 | 0.00 | 0.00 | 70 | 1012.6 |
| 20260506011500 | 69 | 57 | 0.0 | 3.0 | 0.00 | 0.00 | 0.00 | 70 | 1012.5 |
| 20260506010000 | 69 | 275 | 0.0 | 3.0 | 0.00 | 0.00 | 0.00 | 69 | 1012.2 |
| 20260506004601 | 70 | 92 | 0.0 | 2.0 | 0.00 | 0.00 | 0.00 | 68 | 1012.0 |
| 20260506003100 | 70 | 99 | 0.0 | 4.0 | 0.00 | 0.00 | 0.00 | 66 | 1011.7 |
| 20260506001559 | 71 | 98 | 0.0 | 3.0 | 0.00 | 0.00 | 0.00 | 65 | 1011.6 |
| 20260505234605 | 72 | 46 | 0.0 | 3.0 | 0.00 | 0.00 | 0.00 | 60 | 1011.4 |
| 20260505233110 | 73 | 82 | 0.0 | 4.0 | 0.00 | 0.00 | 0.00 | 59 | 1011.4 |
| 20260505231605 | 73 | 81 | 1.0 | 3.0 | 0.00 | 0.00 | 0.00 | 57 | 1011.4 |
| 20260505230056 | 74 | 84 | 0.0 | 3.0 | 0.00 | 0.00 | 0.00 | 55 | 1011.3 |
| 20260505224556 | 75 | 48 | 0.0 | 4.0 | 0.00 | 0.00 | 0.00 | 54 | 1011.2 |
| 20260505223057 | 76 | 20 | 0.0 | 3.0 | 0.00 | 0.00 | 0.00 | 52 | 1011.2 |
| 20260505221555 | 77 | 50 | 0.0 | 3.0 | 0.00 | 0.00 | 0.00 | 51 | 1011.1 |
| 20260505220056 | 77 | 15 | 1.0 | 3.0 | 0.00 | 0.00 | 0.00 | 48 | 1011.2 |
| 20260505214558 | 78 | 44 | 1.0 | 6.0 | 0.00 | 0.00 | 0.00 | 46 | 1011.2 |
| 20260505213053 | 79 | 48 | 1.0 | 5.0 | 0.00 | 0.00 | 0.00 | 44 | 1010.9 |
| 20260505211606 | 79 | 24 | 0.0 | 10.0 | 0.00 | 0.00 | 0.00 | 43 | 1011.0 |
| 20260505210051 | 80 | 41 | 1.0 | 4.0 | 0.00 | 0.00 | 0.00 | 40 | 1010.9 |
| 20260505204552 | 80 | 13 | 1.0 | 5.0 | 0.00 | 0.00 | 0.00 | 40 | 1011.1 |
| 20260505203050 | 81 | 28 | 0.0 | 4.0 | 0.00 | 0.00 | 0.00 | 40 | 1011.2 |
| 20260505201556 | 81 | 117 | 1.0 | 4.0 | 0.00 | 0.00 | 0.00 | 39 | 1011.4 |
| 20260505200049 | 82 | 126 | 1.0 | 3.0 | 0.00 | 0.00 | 0.00 | 38 | 1011.6 |
| 20260505194556 | 82 | 157 | 1.0 | 6.0 | 0.00 | 0.00 | 0.00 | 37 | 1011.8 |
| 20260505193044 | 83 | 15 | 1.0 | 8.0 | 0.00 | 0.00 | 0.00 | 38 | 1011.9 |
| 20260505191541 | 84 | 64 | 1.0 | 3.0 | 0.00 | 0.00 | 0.00 | 38 | 1012.0 |
| 20260505190040 | 83 | 172 | 0.0 | 4.0 | 0.00 | 0.00 | 0.00 | 39 | 1012.1 |
| 20260505184538 | 83 | 164 | 0.0 | 4.0 | 0.00 | 0.00 | 0.00 | 39 | 1012.2 |
| 20260505183040 | 83 | 76 | 0.0 | 4.0 | 0.00 | 0.00 | 0.00 | 40 | 1012.4 |
| 20260505181537 | 83 | 96 | 0.0 | 3.0 | 0.00 | 0.00 | 0.00 | 41 | 1012.4 |
| 20260505180039 | 83 | 65 | 1.0 | 3.0 | 0.00 | 0.00 | 0.00 | 41 | 1012.8 |
| 20260505174540 | 82 | 43 | 1.0 | 3.0 | 0.00 | 0.00 | 0.00 | 42 | 1012.9 |
| 20260505173034 | 83 | 97 | 0.0 | 3.0 | 0.00 | 0.00 | 0.00 | 43 | 1013.1 |
| 20260505171533 | 82 | 70 | 1.0 | 3.0 | 0.00 | 0.00 | 0.00 | 43 | 1013.1 |
| 20260505170027 | 81 | 131 | 0.0 | 2.0 | 0.00 | 0.00 | 0.00 | 44 | 1013.1 |
| 20260505164526 | 80 | 134 | 0.0 | 3.0 | 0.00 | 0.00 | 0.00 | 45 | 1013.3 |
| 20260505163024 | 80 | 154 | 0.0 | 4.0 | 0.00 | 0.00 | 0.00 | 45 | 1013.4 |
| 20260505161523 | 80 | 92 | 0.0 | 2.0 | 0.00 | 0.00 | 0.00 | 47 | 1013.5 |
| 20260505153012 | 75 | 117 | 0.0 | 3.0 | 0.00 | 0.00 | 0.00 | 51 | 1013.6 |
| 20260505151509 | 74 | 125 | 0.0 | 2.0 | 0.00 | 0.00 | 0.00 | 54 | 1013.6 |